This is the latest recevied weather packets stored in our database for station/object OE6JUE. If no packets are shown the sender has not sent any weather packets the latest 10 day(s).
| Time | Temp. | Humidity | Pressure | Rain* | Wind** | Luminosity | Snow |
|---|---|---|---|---|---|---|---|
| 1788210822 | 16.67° C | 97% | 1021.8 hPa | 6.1 mm | - | - | - |
| 1788210521 | 16.67° C | 97% | 1021.8 hPa | 6.1 mm | - | - | - |
| 1788210222 | 17.22° C | 96% | 1021.8 hPa | 5.33 mm | - | - | - |
| 1788209922 | 17.22° C | 96% | 1021.7 hPa | 5.08 mm | - | - | - |
| 1788209621 | 17.22° C | 96% | 1021.7 hPa | 5.08 mm | - | - | - |
| 1788209321 | 17.22° C | 95% | 1022.4 hPa | 3.81 mm | - | - | - |
| 1788209021 | 17.78° C | 92% | 1022.3 hPa | 2.79 mm | - | - | - |
| 1788208728 | 17.78° C | 91% | 1022 hPa | 2.03 mm | - | - | - |
| 1788208421 | 17.78° C | 92% | 1021.1 hPa | 1.78 mm | - | - | - |
| 1788208121 | 18.33° C | 95% | 1020.5 hPa | 0.25 mm | - | - | - |
| 1788207821 | 18.33° C | 97% | 1020.9 hPa | 0 mm | - | - | - |
| 1788207521 | 18.33° C | 99% | 1020.1 hPa | 0 mm | - | - | - |
| 1788207221 | 18.33° C | 99% | 1020.3 hPa | 0 mm | - | - | - |
| 1788206921 | 18.33° C | 99% | 1020.7 hPa | 0 mm | - | - | - |
| 1788206621 | 18.33° C | 99% | 1020.4 hPa | 0 mm | - | - | - |
| 1788206321 | 18.33° C | 99% | 1020.3 hPa | 0 mm | - | - | - |
| 1788206021 | 18.33° C | 99% | 1020 hPa | 1.27 mm | - | - | - |
| 1788205721 | 18.33° C | 99% | 1020 hPa | 1.52 mm | - | - | - |
| 1788205421 | 18.33° C | 99% | 1019.6 hPa | 3.81 mm | - | - | - |
| 1788205122 | 18.33° C | 99% | 1019.2 hPa | 6.35 mm | - | - | - |
| 1788204821 | 18.33° C | 99% | 1019.1 hPa | 7.11 mm | - | - | - |
| 1788204521 | 18.33° C | 99% | 1019 hPa | 7.62 mm | - | - | - |
| 1788204221 | 18.33° C | 99% | 1018.9 hPa | 7.87 mm | - | - | - |
| 1788203921 | 18.33° C | 99% | 1018.7 hPa | 7.87 mm | - | - | - |
| 1788203621 | 18.33° C | 98% | 1018.6 hPa | 7.87 mm | - | - | - |
* Rain latest hour (hover to see other rain measurements)
** Current wind speed in m/s (hover to see current wind gust speed)